x

Islay/port Ellen (03105) Weather Station

4:00am - Thu 2nd Apr 2015 All times are BST. 1 hours from GMT.

  • Wind
    5mph
  • Air Temp 34°f
  • Sea Pressure 1019mb
  • Islay/port Ellen
  • Islay/port Ellen

More Historic Weather Station data

Upgrade to MSW Pro to gain access to the past 30 days of data for over 8000 Wavebouys and Weather Stations around the globe.

Join Pro

Comparision Forecast

View Surf forecast
   
Thu 04/02 4:00am 5
mph
1019mb 34f
3:00am 1
mph
1018mb 34f
2:00am 5
mph
1018mb 35f
1:00am 6
mph
1017mb 34f
12:00am 9
mph
1017mb 35f
Wed 04/01 11:00pm 11
mph
1017mb 40f
10:00pm 11
mph
1016mb 40f
9:00pm 14
mph
1016mb 40f
8:00pm 11
mph
1016mb 41f
7:00pm 16
mph
1016mb 42f
6:00pm 13
mph
1016mb 42f
5:00pm 18 31 mph 1017mb 42f
4:00pm 22 31 mph 1017mb 43f
3:00pm 21 33 mph 1017mb 44f
2:00pm 25 36 mph 1017mb 45f
1:00pm 22 44 mph 1017mb 43f
12:00pm 23 36 mph 1017mb 45f
11:00am 23 36 mph 1017mb 44f
10:00am 25 39 mph 1018mb 41f
9:00am 26 37 mph 1018mb 43f
8:00am 21 33 mph 1017mb 42f
7:00am 25 34 mph 1017mb 41f
6:00am 24 47 mph 1017mb 39f
5:00am 24 49 mph 1017mb 41f
4:00am 14 46 mph 1017mb 40f
3:00am 30 44 mph 1016mb 42f
2:00am 33 46 mph 1016mb 42f
1:00am 30 51 mph 1015mb 42f
12:00am 34 49 mph 1014mb 41f
Tue 03/31 11:00pm 31 44 mph 1013mb 42f
10:00pm 31 59 mph 1012mb 40f
9:00pm 31 55 mph 1011mb 40f
8:00pm 40 56 mph 1010mb 40f
7:00pm 34 62 mph 1009mb 42f
6:00pm 37 54 mph 1007mb 40f
5:00pm 37 63 mph 1007mb 41f
4:00pm 38 56 mph 1006mb 39f
3:00pm 41 53 mph 1005mb 44f
2:00pm 40 60 mph 1004mb 43f
1:00pm 49 66 mph 1004mb 37f
12:00pm 43 66 mph 1002mb 43f
11:00am 46 63 mph 1002mb 38f
10:00am 40 56 mph 1000mb 43f
9:00am 37 56 mph 1000mb 41f
8:00am 29 53 mph 999mb 40f
7:00am 30 43 mph 998mb 43f
6:00am 26 45 mph 996mb 41f
5:00am 30 47 mph 995mb 41f
4:00am 34 49 mph 993mb 42f
3:00am 30 45 mph 991mb 42f
2:00am 32 54 mph 988mb 43f
1:00am 43 57 mph 984mb 44f
12:00am 41 55 mph 982mb 47f
Mon 03/30 11:00pm 39 60 mph 983mb 47f
10:00pm 30 61 mph 983mb 47f
9:00pm 37 52 mph 984mb 48f
8:00pm 33 47 mph 985mb 47f
7:00pm 30 40 mph 986mb 49f
6:00pm 25 38 mph 988mb 47f
5:00pm 22 30 mph 990mb 43f
4:00pm 18
mph
994mb 42f
3:00pm 17
mph
997mb 42f
2:00pm 22 31 mph 999mb 44f
1:00pm 22 29 mph 1001mb 45f
12:00pm 11 43 mph 1001mb 44f
11:00am 23 33 mph 1002mb 44f
10:00am 24 31 mph 1002mb 45f
9:00am 22 33 mph 1002mb 43f
8:00am 23 36 mph 1002mb 43f
7:00am 24 40 mph 1002mb 40f
6:00am 13 49 mph 1002mb 38f
5:00am 28 38 mph 1001mb 42f
4:00am 32 41 mph 1000mb 41f
3:00am 28 41 mph 999mb 40f
2:00am 29 47 mph 998mb 40f
1:00am 26 51 mph 997mb 38f
12:00am 25 36 mph 996mb 40f
Sun 03/29 11:00pm 23 41 mph 995mb 39f
10:00pm 21 34 mph 995mb 40f
9:00pm 25 39 mph 994mb 42f
8:00pm 29 46 mph 993mb 41f
7:00pm 36 44 mph 992mb 44f
6:00pm 34 45 mph 992mb 44f
5:00pm 34 47 mph 991mb 46f
4:00pm 28 41 mph 990mb 46f
3:00pm 22 36 mph 989mb 45f
2:00pm 25 32 mph 989mb 46f
1:00pm 23 32 mph 989mb 43f
12:00pm 17
mph
989mb 42f
11:00am 21
mph
989mb 42f
10:00am 18
mph
989mb 43f
9:00am 3
mph
989mb 43f
8:00am 10
mph
990mb 41f
7:00am 17 31 mph 991mb 39f
6:00am 6
mph
992mb 42f
5:00am 8
mph
992mb 42f